Nashua, NH

8:54 PM EDT on October 16, 2019 (GMT -0400)
Boire

Weather History for KASH - August, 2019

Change the Weather History Date:

Saturday, August 17, 2019

  Actual Average Record
Temperature  
Mean Temperature 74 °F -  
Max Temperature 82 °F 81 °F 95 °F (1987)
Min Temperature 66 °F 58 °F 40 °F (1961)
Cooling Degree Days 9    
Growing Degree Days 24 (Base 50)    
Moisture  
Dew Point 69 °F    
Average Humidity 92    
Maximum Humidity 100    
Minimum Humidity 71    
Precipitation  
Precipitation 0.23 in - - ()
Sea Level Pressure  
Sea Level Pressure 30.05 in    
Wind  
Wind Speed 3 mph (SE)    
Max Wind Speed 10 mph    
Max Gust Speed 17 mph    
Visibility 10 miles    
Events Rain , Thunderstorm    
Averages and records for this station are not official NWS values.
T = Trace of Precipitation, MM = Missing Value Source: NWS Daily Summary

Daily Weather History Graph

Daily Weather History Graph

Search for Another Location

Airport or City:

Astronomy

Aug. 17, 2019 Rise Set
Actual Time 5:54 AM EDT 7:45 PM EDT
Civil Twilight 5:23 AM EDT 8:15 PM EDT
Nautical Twilight 4:46 AM EDT 8:52 PM EDT
Astronomical Twilight 4:06 AM EDT 9:32 PM EDT
Moon 9:09 PM EDT 7:41 AM EDT
Length of Visible Light 14h 51m
Length of Day
13h 50m
Waning Gibbous, 96% of the Moon is Illuminated
Aug 17
Waning Gibbous
Aug 23
Last Quarter
Aug 30
New
Sep 5
First Quarter
Sep 14
Full

Hourly Weather History & Observations

Time (EDT) Temp. Heat Index Dew Point Humidity Pressure Visibility Wind Dir Wind Speed Gust Speed Precip Events Conditions
12:56 AM 68.0 °F - 66.9 °F 96% 30.08 in 10.0 mi SE 3.5 mph - N/A   Overcast
1:26 AM 68.0 °F - 66.2 °F 94% 30.07 in 10.0 mi Calm Calm - N/A   Overcast
1:43 AM 68.0 °F - 66.2 °F 94% 30.07 in 10.0 mi Variable 3.5 mph - N/A   Overcast
1:56 AM 68.0 °F - 66.9 °F 96% 30.09 in 10.0 mi Variable 3.5 mph - N/A   Overcast
2:34 AM 66.2 °F - 66.2 °F 100% 30.08 in 10.0 mi Calm Calm - N/A   Mostly Cloudy
2:53 AM 66.2 °F - 66.2 °F 100% 30.08 in 10.0 mi Calm Calm - N/A   Mostly Cloudy
2:56 AM 66.9 °F - 66.9 °F 100% 30.09 in 10.0 mi Calm Calm - N/A   Overcast
3:20 AM 66.2 °F - 66.2 °F 100% 30.08 in 10.0 mi Calm Calm - N/A   Overcast
3:40 AM 66.2 °F - 66.2 °F 100% 30.08 in 10.0 mi SSE 3.5 mph - N/A   Overcast
3:56 AM 66.9 °F - 66.9 °F 100% 30.09 in 10.0 mi Calm Calm - N/A   Overcast
4:52 AM 68.0 °F - 66.2 °F 94% 30.08 in 10.0 mi Calm Calm - N/A   Overcast
4:56 AM 66.9 °F - 66.9 °F 100% 30.09 in 10.0 mi Calm Calm - N/A   Overcast
5:25 AM 68.0 °F - 66.2 °F 94% 30.07 in 10.0 mi SE 3.5 mph - N/A   Overcast
5:56 AM 66.9 °F - 66.9 °F 100% 30.08 in 10.0 mi Calm Calm - N/A   Overcast
6:56 AM 68.0 °F - 68.0 °F 100% 30.09 in 10.0 mi Calm Calm - N/A   Overcast
7:04 AM 68.0 °F - 68.0 °F 100% 30.07 in 10.0 mi Calm Calm - N/A   Overcast
7:29 AM 69.8 °F - 68.0 °F 94% 30.07 in 10.0 mi Calm Calm - N/A   Overcast
7:56 AM 70.0 °F - 68.0 °F 93% 30.09 in 10.0 mi Calm Calm - N/A   Overcast
8:08 AM 69.8 °F - 68.0 °F 94% 30.08 in 10.0 mi Variable 3.5 mph - N/A   Overcast
8:44 AM 69.8 °F - 68.0 °F 94% 30.07 in 10.0 mi Variable 3.5 mph - N/A   Overcast
8:56 AM 70.0 °F - 69.1 °F 97% 30.09 in 10.0 mi Calm Calm - N/A   Overcast
9:24 AM 69.8 °F - 69.8 °F 100% 30.07 in 10.0 mi SE 4.6 mph - N/A   Overcast
9:56 AM 73.0 °F - 69.1 °F 87% 30.09 in 10.0 mi SE 6.9 mph - N/A   Overcast
10:56 AM 73.9 °F - 70.0 °F 87% 30.08 in 10.0 mi South 4.6 mph - N/A   Overcast
11:15 AM 73.4 °F - 69.8 °F 88% 30.07 in 10.0 mi Variable 3.5 mph - N/A   Overcast
11:32 AM 73.4 °F - 69.8 °F 88% 30.07 in 10.0 mi Variable 3.5 mph - N/A   Overcast
11:56 AM 75.0 °F - 70.0 °F 84% 30.08 in 10.0 mi Variable 4.6 mph - N/A   Overcast
12:56 PM 77.0 °F - 70.0 °F 79% 30.07 in 10.0 mi Variable 3.5 mph - N/A   Overcast
1:56 PM 79.0 °F - 71.1 °F 77% 30.06 in 10.0 mi ESE 9.2 mph - N/A   Overcast
2:56 PM 80.1 °F 83.8 °F 72.0 °F 76% 30.05 in 10.0 mi SE 9.2 mph - N/A   Overcast
3:56 PM 82.0 °F 86.7 °F 72.0 °F 71% 30.02 in 10.0 mi SE 9.2 mph 16.1 mph N/A   Mostly Cloudy
4:56 PM 80.1 °F 83.8 °F 72.0 °F 76% 30.00 in 10.0 mi ESE 9.2 mph - N/A   Mostly Cloudy
5:56 PM 79.0 °F - 72.0 °F 79% 29.99 in 10.0 mi SE 6.9 mph 17.3 mph N/A   Mostly Cloudy
6:19 PM 78.8 °F - 71.6 °F 78% 29.98 in 10.0 mi ESE 9.2 mph - N/A   Mostly Cloudy
6:56 PM 78.1 °F - 72.0 °F 81% 30.01 in 10.0 mi Variable 5.8 mph - N/A   Mostly Cloudy
7:03 PM 77.0 °F - 71.6 °F 83% 30.00 in 10.0 mi SE 6.9 mph - N/A   Mostly Cloudy
7:56 PM 75.0 °F - 71.1 °F 87% 30.00 in 10.0 mi ESE 9.2 mph - N/A   Overcast
8:56 PM 73.0 °F - 70.0 °F 90% 30.02 in 10.0 mi ESE 10.4 mph - N/A   Mostly Cloudy
9:20 PM 71.6 °F - 69.8 °F 94% 30.02 in 10.0 mi ESE 8.1 mph - N/A   Mostly Cloudy
9:40 PM 71.6 °F - 69.8 °F 94% 30.02 in 10.0 mi SSE 4.6 mph - N/A Thunderstorm Mostly Cloudy
9:56 PM 71.1 °F - 70.0 °F 96% 30.04 in 10.0 mi Calm Calm - N/A Thunderstorm Thunderstorm
10:21 PM 69.8 °F - 69.8 °F 100% 30.02 in 7.0 mi Calm Calm - 0.15 in Rain , Thunderstorm Thunderstorms and Rain
10:51 PM 69.8 °F - 69.8 °F 100% 30.00 in 10.0 mi East 4.6 mph - 0.21 in Rain Rain
10:56 PM 70.0 °F - 70.0 °F 100% 30.02 in 9.0 mi Calm Calm - 0.22 in Rain Light Rain
11:28 PM 69.8 °F - 69.8 °F 100% 30.01 in 10.0 mi Calm Calm - 0.01 in Rain Light Rain
11:36 PM 69.8 °F - 69.8 °F 100% 30.02 in 10.0 mi Calm Calm - 0.01 in Rain Light Rain
11:56 PM 69.1 °F - 69.1 °F 100% 30.03 in 10.0 mi Calm Calm - 0.01 in   Mostly Cloudy